Location: Agendoh
(31.0664°N, 8.9343°W)
Time: 19:32:34
(UTC+00:00)

Landsat 5 - Pass Details

Date: 06 December 2021
Orbit: 527 x 653 km, 98.2° (Epoch: 17 January)

Event Time Altitude Azimuth Distance (km) Brightness Sun altitude
Rises 06:35:14 0° 183° (S) 2,953 7.3 -9.7°
Reaches altitude 10° 06:37:32 10° 190° (S) 2,050 6.4 -9.2°
Maximum altitude 06:41:47 41° 261° (W) 940 4.1 -8.4°
Drops below altitude 10° 06:46:02 10° 332° (NNW) 2,051 5.8 -7.5°
Sets 06:48:20 0° 339° (NNW) 2,954 6.6 -7.1°
